Regional Weather Roundup
Issued by NWS Pendleton, OR

Home | Current Version | Previous Version | Text Only | Print | Product List | Glossary On
Versions: 1 2 3 4 5 6 7 8 9 10 11 12 13 14 15 16 17 18 19 20 21 22 23 24 25 26 27 28 29 30 31 32 33 34 35 36 37 38 39 40 41 42 43 44 45 46 47 48 49 50
000
ASUS46 KPDT 191510
RWRPDT
PENDLETON REGIONAL WEATHER ROUNDUP
NATIONAL WEATHER SERVICE PENDLETON OREGON
800 AM PDT FRI APR 19 2024

NOTE: FAIR INDICATES FEW OR NO CLOUDS BELOW 12,000 FEET WITH NO
SIGNIFICANT WEATHER AND/OR OBSTRUCTIONS TO VISIBILITY.

# INDICATES UNOFFICIAL STATION AND DATA

WAZ520-191610-
EAST SLOPES OF WASHINGTON CASCADES

CITY            SKY/WX      TMP DP  RH  WIND    PRES   REMARKS
#BULLFROG       N/A         34  25  69  CALM    N/A
#CLE ELUM HS    N/A         33  25  72  CALM    30.19S
#ELK HTS DOT    N/A         37  28  70  CALM    N/A
#GLENWOOD       N/A         42  31  65  N5      30.24S
#NILE           N/A         31  26  81  CALM    29.61S
#TROUT LAKE 1NE N/A         36  31  82  CALM    30.21S
#TROUT LAKE 1E  N/A         34  29  82  CALM    30.20S
$$

WAZ521-191610-
SIMCOE HIGHLANDS

CITY            SKY/WX      TMP DP  RH  WIND    PRES   REMARKS
#SATUS PASS DOT N/A         33  26  75  CALM    N/A
#CENTERVILLE 1SWN/A         40  32  73  CALM    30.18R
#LYLE 6NE       N/A         42  31  65  N2      30.22R
$$

WAZ026-191610-
KITTITAS VALLEY

CITY            SKY/WX      TMP DP  RH  WIND    PRES   REMARKS
ELLENSBURG AP   FAIR        40  28  62  CALM    30.28R
#ELLENSBURG CWU N/A         34  26  72  CALM    30.26R
#ELLENSBURG 1E  N/A         34  27  75  CALM    30.35R
#MANASTASH RDG  N/A         40  22  48  N10     N/A
#ROCKY CYN DOT  N/A         42  32  67  NW2     N/A
#RYEGRASS DOT   N/A         41  24  50  NE16    N/A    WCI 33
#THORP 6N       N/A         29  25  85  CALM    30.22S
$$

WAZ027-191610-
YAKIMA VALLEY

CITY            SKY/WX      TMP DP  RH  WIND    PRES   REMARKS
SUNNYSIDE AP    FAIR        38  31  76  SE5     30.26F
YAKIMA AIRPORT  FAIR        46  28  49  N10     30.28S
YAKIMA-VAGABOND FAIR        46  25  43  NE12    30.22F WCI 40
#MABTON         N/A         42  32  67  CALM    30.27S
#NACHES 2SW     N/A         40  28  62  NE2     30.27R
#OUTLOOK DOT    N/A         43  31  62  SW8     N/A
#PARKER DOT     N/A         45  27  49  VRB9    N/A
#TERRACE HTS    N/A         45  32  60  W1      30.25S
#I82 S UMTANUM RN/A         43  26  51  N12     N/A    WCI 37
#UNION GAP DOT  N/A         45  27  49  W8      N/A
#ZILLAH DOT     N/A         44  31  60  E2      N/A
$$

WAZ028-191610-
LOWER COLUMBIA BASIN...WASHINGTON

CITY            SKY/WX      TMP DP  RH  WIND    PRES   REMARKS
PASCO           FAIR        44  33  65  N12     30.27S WCI 38
PROSSER AWOS    N/A         41  37  86  SW8     30.29S
RICHLAND AWOS   FAIR        46  33  60  NW14    30.28S WCI 40
#BASIN CITY 5SW N/A         41  34  76  N8      30.26R
#BENTON CITY    N/A         45  31  58  N8      30.18R
#CONNELL 5N     N/A         44  30  58  NE8     30.26R
#ELTOPIA 6NW    N/A         39  33  79  CALM    29.22S
#KENNEWICK 3S   N/A         37  33  85  CALM    30.27R
#PROSSER DOT    N/A         39  30  70  W5      N/A
#SAGEMOOR 2W    N/A         38  32  79  CALM    30.26S
$$

WAZ029-191610-
FOOTHILLS OF THE BLUES...WASHINGTON

CITY            SKY/WX      TMP DP  RH  WIND    PRES   REMARKS
WALLA WALLA AP  FAIR        37  32  82  S8      30.22R
#CLYDE 6NW      N/A         40  32  73  NE5     30.24R
#DELANEY DOT    N/A         30  27  88  CALM    N/A
#LOWDEN 2SE     N/A         34  31  89  CALM    30.13R
#PRESCOTT       N/A         39  32  76  CALM    30.23S
#WALLA WALLA 5E N/A         39  35  85  S1      N/A
#WHITMAN MISSIONN/A         34  32  92  CALM    30.29R
$$

WAZ030-191610-
BLUE MOUNTAINS...WASHINGTON

CITY            SKY/WX      TMP DP  RH  WIND    PRES   REMARKS
$$

ORZ009-041-WAZ024-191610-
COLUMBIA RIVER GORGE

CITY            SKY/WX      TMP DP  RH  WIND    PRES   REMARKS
HOOD RIVER AP   FAIR        41  32  70  CALM    30.24R
THE DALLES AP   FAIR        41  31  67  E7      30.26R
#CELILO DOT     N/A         44  32  62  N2      N/A
#LYLE           N/A         40  31  70  CALM    30.25S
#MARYHILL       N/A         43  32  65  E1      N/A
#RUFUS DOT      N/A         40  30  67  S8      N/A

$$

ORZ510-191610-
NORTH CENTRAL OREGON

CITY            SKY/WX      TMP DP  RH  WIND    PRES   REMARKS
#ANTELOPE       N/A         40  30  67  CALM    30.04R
#COW CYN RST AREN/A         37  28  70  CALM    N/A
#DUFUR          N/A         37  31  79  CALM    30.21S
#GRASS VALLEY 1SN/A         39  32  76  NE8     30.16S
#KENT DOT       N/A         37  29  72  NE10    N/A
#SHANIKO 5WSW   N/A         34  27  75  NE21    N/A    WCI 22
#WAPANITIA AIRPON/A         41  32  70  NE1     30.25S
#WASCO DOT      N/A         41  31  67  E1      N/A
#WASCO 5NE      N/A         40  32  73  CALM    30.22R
$$

ORZ511-191610-
CENTRAL OREGON

CITY            SKY/WX      TMP DP  RH  WIND    PRES   REMARKS
BEND AIRPORT    N/A         39  23  52  VRB7    30.13S
MADRAS AIRPORT  FAIR        37  27  67  CALM    30.19S
PRINEVILLE AP   FAIR        37  23  56  S3      30.15S
REDMOND AIRPORT FAIR        37  21  52  CALM    30.15R
#ASHWOOD SCHOOL N/A         33  23  66  SE1     30.12S
#CULVER         N/A         38  25  59  CALM    29.25S
#PRINEVILLE     N/A         35  27  72  CALM    30.27R

$$


ORZ509-191610-
EAST SLOPES OF OREGON CASCADES

CITY            SKY/WX      TMP DP  RH  WIND    PRES   REMARKS
SUNRIVER AWOS   FAIR        36  21  54  NE12    30.15S WCI 28
#BLUE BOX PASS  N/A         33  N/A N/A S3      N/A
#LA PINE DOT    N/A         32  17  53  S1      N/A
#LAVA BUTTE DOT N/A         33  20  58  NE6     N/A
#SISTERS ODOT   N/A         30  N/A N/A CALM    N/A
#WANOGA BUTTE D N/A         32  14  47  N6      N/A

$$

ORZ044-191610-
LOWER COLUMBIA BASIN...OREGON

CITY            SKY/WX      TMP DP  RH  WIND    PRES   REMARKS
HERMISTON       FAIR        40  32  73  SE5     30.26R
#BOARDMAN SCHOOLN/A         46  35  65  NE3     30.22S
#ECHO 8SW       N/A         37  33  85  SW2     30.26R
#I-84 EX 198 DOTN/A         38  34  85  E5      N/A
#UMATILLA       N/A         39  33  79  CALM    30.27R
$$

ORZ507-191610-
NORTHERN FOOTHILLS OF THE BLUES

CITY            SKY/WX      TMP DP  RH  WIND    PRES   REMARKS
PENDLETON AIRPT FAIR        37  30  75  CALM    30.22R
#ATHENA         N/A         37  30  75  CALM    30.25R
#CAYUSE         N/A         35  29  78  CALM    30.22R
#HELIX 3N       N/A         38  34  85  CALM    30.21R
#HOLDMAN 5SE    N/A         34  25  69  CALM    30.22R
#HOLDMAN 6E     N/A         38  34  85  CALM    30.01R
#M-FREEWATER 5SEN/A         32  29  89  CALM    30.20R
#PDT SUNRIDGE   N/A         34  29  82  CALM    30.21R
#TUTUILLA       N/A         31  28  88  CALM    30.27S
#UMAPINE 2E     N/A         36  32  85  CALM    30.25R

$$

ORZ508-191610-
SOUTHERN FOOTHILLS OF THE BLUES

CITY            SKY/WX      TMP DP  RH  WIND    PRES   REMARKS
LEXINGTON       FAIR        37  30  75  CALM    30.26R
#AJAX           N/A         40  31  70  E15     30.18S WCI 32
#HEPPNER EOC    N/A         36  27  69  CALM    30.16S
#HEPPNER 4NE    N/A         38  30  73  NE1     30.23S
#RUGGS 2SW      N/A         37  29  72  CALM    30.25R

$$

ORZ502-503-191610-
BLUE MOUNTAINS

CITY            SKY/WX      TMP DP  RH  WIND    PRES   REMARKS
#BATTLE MTN DOT N/A         33  24  69  N1      N/A
#HARDMAN 10S    N/A         35  23  61  N5      30.28S
#LADD CYN SMT   N/A         33  31  92  CALM    N/A
#LADD CREEK ODOTN/A         31  26  81  SW2     N/A
#N POWDER DOT   N/A         31  25  78  W1      N/A
#TOLLGATE       N/A         34  24  66  CALM    30.15R
#WESTON 4E      N/A         43  29  57  CALM    30.16R
$$

ORZ505-191610-
JOHN DAY BASIN

CITY            SKY/WX      TMP DP  RH  WIND    PRES   REMARKS
JOHN DAY        FAIR        35  21  56  E5      30.15S
#MITCHELL 8NW   N/A         41  22  46  CALM    30.14
#MT. VERNON 5SE N/A         38  23  54  CALM    30.13S
$$

ORZ506-191610-
OCHOCO AND JOHN DAY HIGHLANDS

CITY            SKY/WX      TMP DP  RH  WIND    PRES   REMARKS
#BUCK CREEK DOT N/A         36  23  59  CALM    N/A
#HORSE RIDGE DO N/A         27  17  65  CALM    N/A
#KEYES SMT DOT  N/A         35  21  56  E1      N/A
#PAULINA ODOT   N/A         30  24  78  CALM    N/A
#PRAIRIE CITY   N/A         33  25  72  E1      30.08F
#SENECA 9NW     N/A         22  19  88  CALM    30.17F
$$

ORZ049-191610-
GRANDE RONDE VALLEY

CITY            SKY/WX      TMP DP  RH  WIND    PRES   REMARKS
LA GRANDE       FAIR        35  27  72  CALM    30.22R
#COVE SCHOOL    N/A         34  27  75  CALM    30.18R
#COVE 6NW       N/A         31  27  85  CALM    30.25S
#ELGIN 1E       N/A         35  28  75  E1      N/A
#IMBLER SCHOOL  N/A         35  27  72  W2      30.15R
#ISLAND CITY 4N N/A         53  31  43  E5      30.11S
#LADD CYN DOT   N/A         36  31  82  CALM    N/A
#UNION 1S       N/A         34  28  78  CALM    30.25S
$$

ORZ050-191610-
WALLOWA COUNTY

CITY            SKY/WX      TMP DP  RH  WIND    PRES   REMARKS
#IMNAHA SCHOOL  N/A         33  27  78  CALM    30.30R
#JOSEPH 3N      N/A         30  25  81  CALM    30.16R
#LOSTINE 3SE    N/A         32  24  72  SW3     30.26R
#MT HOWARD 8000 N/A         25  11  55  CALM    30.02R
#WALLOWA SCHOOL N/A         33  24  69  CALM    30.27S



$$


USA.gov is the U.S. government's official web portal to all federal, state and local government web resources and services.